EW5123 Weather Reports


Display with metric or nautical units.
time (UTC)temp
F
wind
direction
speed
MPH
gust
MPH
rain 1hr
in
rain 24hr
in
rain mn
in
humidity
%
barometer
mb
20260510174008 58 46 3.0 6.0 0.00 0.04 0.04 46 989.3
20260510173508 58 314 2.0 7.0 0.00 0.04 0.04 47 989.3
20260510173008 58 344 1.0 7.0 0.00 0.04 0.04 45 989.5
20260510172509 58 311 1.0 6.0 0.00 0.04 0.04 49 989.5
20260510172008 57 144 1.0 6.0 0.00 0.04 0.04 49 989.5
20260510171513 57 321 1.0 6.0 0.00 0.04 0.04 49 989.5
20260510171509 57 313 2.0 6.0 0.00 0.04 0.04 50 989.5
20260510170509 57 29 0.0 3.0 0.00 0.04 0.04 57 989.5
20260510170009 56 212 1.0 4.0 0.00 0.04 0.04 56 989.6
20260510165508 55 180 0.0 4.0 0.00 0.04 0.04 59 989.5
20260510165008 56 240 0.0 3.0 0.00 0.04 0.04 57 989.3
20260510164508 55 217 1.0 5.0 0.00 0.04 0.04 59 989.3
20260510164009 55 261 1.0 5.0 0.00 0.04 0.04 61 989.5
20260510163509 55 132 1.0 5.0 0.00 0.04 0.04 60 989.3
20260510163013 54 145 1.0 4.0 0.00 0.04 0.04 62 989.3
20260510163008 55 216 0.0 3.0 0.00 0.04 0.04 62 989.3
20260510162009 53 218 1.0 4.0 0.00 0.04 0.04 62 989.3
20260510161508 53 191 0.0 3.0 0.00 0.04 0.04 66 989.5
20260510161008 53 149 0.0 3.0 0.00 0.04 0.04 67 989.3
20260510160508 53 308 1.0 4.0 0.00 0.04 0.04 67 989.3
20260510160009 53 232 0.0 4.0 0.00 0.04 0.04 68 989.3
20260510155509 52 334 0.0 3.0 0.00 0.04 0.04 70 989.3
20260510155009 52 234 0.0 3.0 0.00 0.04 0.04 70 989.5
20260510154509 53 316 0.0 2.0 0.00 0.04 0.04 67 989.5
20260510154008 52 180 1.0 3.0 0.00 0.04 0.04 72 989.6
20260510153511 52 169 0.0 3.0 0.00 0.04 0.04 71 989.7
20260510153507 52 173 0.0 3.0 0.00 0.04 0.04 72 989.6
20260510152505 52 203 0.0 1.0 0.00 0.04 0.04 71 989.7
20260510152010 50 141 0.0 1.0 0.00 0.04 0.04 77 989.7
20260510152004 51 188 0.0 2.0 0.00 0.04 0.04 72 989.7
20260510151505 50 159 0.0 2.0 0.00 0.04 0.04 75 989.7
20260510150504 49 302 0.0 1.0 0.00 0.04 0.04 78 989.7
20260510150004 49 4 0.0 1.0 0.00 0.04 0.04 81 989.7
20260510145504 48 346 0.0 1.0 0.00 0.04 0.04 83 989.7
20260510145009 46 207 0.0 0.0 0.00 0.04 0.04 86 989.7
20260510145004 47 306 0.0 1.0 0.00 0.04 0.04 84 989.7
20260510144008 46 224 0.0 2.0 0.00 0.04 0.04 86 989.7
20260510144004 46 207 0.0 0.0 0.00 0.04 0.04 86 989.6
20260510143002 45 224 0.0 2.0 0.00 0.04 0.04 86 989.7
20260510142501 46 287 0.0 0.0 0.00 0.04 0.04 88 989.7
20260510142000 45 318 0.0 1.0 0.00 0.04 0.04 89 989.6
20260510141500 45 318 0.0 2.0 0.00 0.04 0.04 88 989.7
20260510141000 45 302 0.0 3.0 0.00 0.04 0.04 89 989.6
20260510140505 44 345 0.0 1.0 0.00 0.04 0.04 90 989.6
20260510140500 45 359 0.0 3.0 0.00 0.04 0.04 90 989.6
20260510135500 44 335 0.0 2.0 0.00 0.04 0.04 90 989.6
20260510135000 44 348 0.0 2.0 0.00 0.04 0.04 90 989.6
20260510134504 44 304 0.0 1.0 0.00 0.04 0.04 91 989.3
20260510134459 44 322 0.0 2.0 0.00 0.04 0.04 90 989.5
20260510133958 44 302 0.0 1.0 0.00 0.04 0.04 91 989.5
20260510133003 44 327 0.0 0.0 0.00 0.04 0.04 92 989.5
20260510132959 44 349 0.0 1.0 0.00 0.04 0.04 91 989.5
20260510132604 44 230 0.0 0.0 0.00 0.04 0.04 92 989.3
20260510131459 43 229 0.0 0.0 0.00 0.04 0.04 92 989.5
20260510131000 43 229 0.0 0.0 0.00 0.04 0.04 92 989.5
20260510130458 43 229 0.0 0.0 0.00 0.04 0.04 92 989.5
20260510130002 43 230 0.0 1.0 0.00 0.04 0.04 92 989.3
20260510125958 43 229 0.0 0.0 0.00 0.04 0.04 92 989.3
20260510125000 43 224 0.0 1.0 0.00 0.04 0.04 93 989.2
20260510124956 43 224 0.0 1.0 0.00 0.04 0.04 92 989.2
20260510123956 43 224 0.0 1.0 0.00 0.04 0.04 93 989.1
20260510123457 43 186 0.0 0.0 0.00 0.04 0.04 93 989.1
20260510122956 43 186 0.0 0.0 0.00 0.04 0.04 93 989.1
20260510122501 43 186 0.0 0.0 0.00 0.04 0.04 93 988.9
20260510122457 43 186 0.0 0.0 0.00 0.04 0.04 93 989.0
20260510121956 43 186 0.0 0.0 0.00 0.04 0.04 93 988.9
20260510120955 43 186 0.0 0.0 0.00 0.04 0.04 93 988.9
20260510120454 43 186 0.0 0.0 0.00 0.04 0.04 93 988.9
20260510115954 43 186 0.0 0.0 0.00 0.04 0.04 93 988.7
20260510115454 43 186 0.0 0.0 0.00 0.04 0.04 93 988.6
20260510114954 43 186 0.0 0.0 0.00 0.04 0.04 93 988.6
20260510114455 43 186 0.0 0.0 0.00 0.04 0.04 93 988.6
20260510113954 43 186 0.0 0.0 0.00 0.04 0.04 93 988.5
20260510113454 42 186 0.0 0.0 0.00 0.04 0.04 93 988.4
20260510112954 42 186 0.0 0.0 0.00 0.04 0.04 93 988.5
20260510112454 43 186 0.0 0.0 0.00 0.04 0.04 93 988.5
20260510111954 42 186 0.0 0.0 0.00 0.04 0.04 93 988.5
20260510111452 42 186 0.0 0.0 0.00 0.04 0.04 93 988.5
20260510110951 42 186 0.0 0.0 0.00 0.04 0.04 93 988.5
20260510110452 42 186 0.0 0.0 0.00 0.04 0.04 93 988.5
20260510105952 42 186 0.0 0.0 0.00 0.04 0.04 93 988.5
20260510105452 42 186 0.0 0.0 0.00 0.04 0.04 93 988.5
20260510104952 42 186 0.0 1.0 0.00 0.04 0.04 93 988.5
20260510104452 42 190 0.0 1.0 0.00 0.04 0.04 93 988.5
20260510103956 42 141 0.0 0.0 0.00 0.04 0.04 93 988.5
20260510103951 42 191 0.0 1.0 0.00 0.04 0.04 93 988.5
20260510102951 42 141 0.0 0.0 0.00 0.04 0.04 93 988.4
20260510102456 42 141 0.0 0.0 0.00 0.04 0.04 93 988.3
20260510102450 42 141 0.0 0.0 0.00 0.04 0.04 93 988.4
20260510101449 42 141 0.0 0.0 0.00 0.04 0.04 93 988.3
20260510100949 42 141 0.0 0.0 0.00 0.04 0.04 93 988.2
20260510100450 42 141 0.0 0.0 0.00 0.04 0.04 93 988.2
20260510095950 42 141 0.0 0.0 0.00 0.04 0.04 93 988.2
20260510095450 42 141 0.0 0.0 0.00 0.04 0.04 93 988.2
20260510094949 42 141 0.0 0.0 0.00 0.04 0.04 93 988.3
20260510094448 42 141 0.0 0.0 0.00 0.04 0.04 93 988.3
20260510093947 42 141 0.0 0.0 0.00 0.04 0.04 93 988.2
20260510093446 42 141 0.0 0.0 0.00 0.04 0.04 93 988.2
20260510092945 42 141 0.0 0.0 0.00 0.04 0.04 93 988.2
20260510092445 42 141 0.0 0.0 0.00 0.04 0.04 93 988.0
20260510091945 42 353 0.0 0.0 0.00 0.04 0.04 93 988.0
20260510091450 42 353 0.0 0.0 0.00 0.04 0.04 93 988.0
20260510091446 42 353 0.0 0.0 0.00 0.04 0.04 93 988.0
20260510090446 42 353 0.0 0.0 0.00 0.04 0.04 93 988.0
20260510085946 42 353 0.0 0.0 0.00 0.04 0.04 93 987.9
20260510085446 42 353 0.0 0.0 0.00 0.04 0.04 93 987.9
20260510084946 42 353 0.0 1.0 0.00 0.04 0.04 92 987.9
20260510084451 42 353 0.0 1.0 0.00 0.04 0.04 92 987.9
20260510084446 42 353 0.0 1.0 0.00 0.04 0.04 92 987.9
20260510083445 42 353 0.0 1.0 0.00 0.04 0.04 92 987.9
20260510082945 42 316 0.0 1.0 0.01 0.04 0.04 92 988.0
20260510082445 42 316 0.0 1.0 0.01 0.04 0.04 92 987.9
20260510081946 42 313 0.0 2.0 0.01 0.04 0.04 92 987.9
20260510081446 42 331 0.0 2.0 0.01 0.04 0.04 92 987.9
20260510080950 42 326 0.0 0.0 0.01 0.04 0.04 93 987.8
20260510080946 42 323 0.0 2.0 0.01 0.04 0.04 93 987.9
20260510075946 42 326 0.0 0.0 0.01 0.04 0.04 92 987.8
20260510075445 42 326 0.0 0.0 0.01 0.04 0.04 92 987.8
20260510074945 42 326 0.0 0.0 0.01 0.04 0.04 92 987.9
20260510074446 42 326 0.0 2.0 0.01 0.04 0.04 92 987.8
20260510073949 42 15 1.0 5.0 0.01 0.03 0.03 92 987.8
20260510073945 42 325 0.0 2.0 0.01 0.04 0.04 92 987.8
20260510073549 42 356 0.0 3.0 0.01 0.04 0.04 92 987.8
20260510072444 42 349 1.0 5.0 0.01 0.03 0.03 92 987.8
20260510071944 42 354 1.0 5.0 0.02 0.03 0.03 92 987.8
20260510071441 42 14 2.0 7.0 0.03 0.03 0.03 92 987.9
20260510070941 42 354 2.0 7.0 0.03 0.03 0.03 91 987.8
20260510070441 42 324 1.0 4.0 0.03 0.03 0.03 91 988.2
20260510065945 42 309 2.0 6.0 0.03 0.03 0.03 91 988.3
20260510065941 43 338 2.0 6.0 0.03 0.03 0.03 91 988.4
20260510064939 43 294 2.0 5.0 0.03 0.03 0.03 91 988.3
20260510064436 43 4 2.0 5.0 0.03 0.03 0.03 91 988.3
20260510063935 43 329 2.0 7.0 0.03 0.03 0.03 90 988.2
20260510063439 43 344 2.0 6.0 0.02 0.02 0.02 89 988.0
20260510063435 43 333 2.0 7.0 0.03 0.03 0.03 90 988.2
20260510063041 43 348 3.0 7.0 0.02 0.02 0.02 88 988.0
20260510061933 44 327 3.0 7.0 0.01 0.01 0.01 87 988.0
20260510061431 44 359 2.0 7.0 0.00 0.00 0.00 87 987.7
20260510060931 44 356 3.0 7.0 0.00 0.00 0.00 87 988.2
20260510060431 44 314 2.0 7.0 0.00 0.00 0.00 86 988.3
20260510055930 44 338 2.0 5.0 0.00 0.00 0.00 86 988.3
20260510055430 44 310 2.0 7.0 0.00 0.00 0.00 86 988.0
20260510054930 44 18 3.0 7.0 0.00 0.00 0.00 85 988.0
20260510054431 44 351 3.0 9.0 0.00 0.00 0.00 85 987.9
20260510053930 44 5 3.0 12.0 0.00 0.00 0.00 85 987.9
20260510053430 44 328 3.0 12.0 0.00 0.00 0.00 85 987.9
20260510052930 45 7 3.0 7.0 0.00 0.00 0.00 85 987.7
20260510052435 45 311 3.0 10.0 0.00 0.00 0.00 84 987.4
20260510052431 45 329 3.0 10.0 0.00 0.00 0.00 85 987.2
20260510051432 45 18 2.0 7.0 0.00 0.00 0.00 85 987.8
20260510050930 45 296 3.0 7.0 0.00 0.00 0.00 84 987.8
20260510050430 45 324 3.0 7.0 0.00 0.00 0.00 84 987.6
20260510045930 45 328 4.0 9.0 0.00 0.00 0.00 84 987.6
20260510045430 45 328 3.0 9.0 0.00 0.00 0.00 84 987.4
20260510044928 45 318 3.0 7.0 0.00 0.00 0.00 84 987.3
20260510044432 45 354 3.0 8.0 0.00 0.00 0.00 84 987.4
20260510044428 45 23 3.0 7.0 0.00 0.00 0.00 84 987.3
20260510043429 46 338 3.0 8.0 0.00 0.00 0.00 83 987.8
20260510042927 46 342 3.0 11.0 0.00 0.00 0.00 83 987.8
20260510042432 46 292 4.0 11.0 0.00 0.00 0.00 81 987.6
20260510042428 46 14 4.0 11.0 0.00 0.00 0.00 81 987.6
20260510041428 46 354 5.0 11.0 0.00 0.00 0.00 80 987.7
20260510040928 47 314 4.0 11.0 0.00 0.00 0.00 78 987.9
20260510040428 47 316 4.0 13.0 0.00 0.00 0.00 76 987.7
20260510035926 47 60 6.0 15.0 0.00 0.00 0.00 76 987.8
20260510035426 47 19 7.0 16.0 0.00 0.00 0.00 77 987.9
20260510034926 47 330 8.0 16.0 0.00 0.00 0.00 76 987.9
20260510034426 47 314 7.0 17.0 0.00 0.00 0.00 76 987.8
20260510033926 47 14 7.0 17.0 0.00 0.00 0.00 76 987.4
20260510033426 47 334 7.0 13.0 0.00 0.00 0.00 76 987.3
20260510032924 47 341 7.0 16.0 0.00 0.00 0.00 76 987.2
20260510032425 48 331 7.0 18.0 0.00 0.00 0.00 76 987.1
20260510031927 48 342 5.0 18.0 0.00 0.00 0.00 75 987.1
20260510031923 48 342 7.0 17.0 0.00 0.00 0.00 75 986.6
20260510031526 48 349 6.0 17.0 0.00 0.00 0.00 75 986.9
20260510030422 48 314 7.0 14.0 0.00 0.00 0.00 75 986.3
20260510025922 48 304 8.0 19.0 0.00 0.00 0.00 74 986.0
20260510025422 49 326 8.0 19.0 0.00 0.00 0.00 73 985.8
20260510024922 49 8 7.0 16.0 0.00 0.00 0.00 73 985.7
20260510024422 49 327 7.0 16.0 0.00 0.00 0.00 72 985.3
20260510023921 50 347 7.0 17.0 0.00 0.00 0.00 70 985.1
20260510023426 51 349 8.0 18.0 0.00 0.00 0.00 66 984.5
20260510023422 50 8 7.0 17.0 0.00 0.00 0.00 68 984.8
20260510022420 52 344 8.0 18.0 0.00 0.00 0.00 64 984.3
20260510021920 53 319 7.0 16.0 0.00 0.00 0.00 60 984.0
20260510021420 54 319 9.0 17.0 0.00 0.00 0.00 57 983.8
20260510020920 55 38 8.0 18.0 0.00 0.00 0.00 54 983.5
20260510020424 57 18 10.0 20.0 0.00 0.00 0.00 48 983.3
20260510020420 56 329 9.0 18.0 0.00 0.00 0.00 50 983.4
20260510015420 60 345 7.0 22.0 0.00 0.00 0.00 44 982.4
20260510014920 63 321 2.0 22.0 0.00 0.00 0.00 37 981.2
20260510014419 63 324 1.0 4.0 0.00 0.00 0.00 33 980.6
20260510013920 63 352 0.0 3.0 0.00 0.00 0.00 32 980.2
20260510013419 63 335 0.0 2.0 0.00 0.00 0.00 32 980.1
20260510012920 64 356 0.0 1.0 0.00 0.00 0.00 31 980.0
20260510012421 64 342 0.0 1.0 0.00 0.00 0.00 31 979.9
20260510011917 64 338 0.0 2.0 0.00 0.00 0.00 31 979.9
20260510011418 64 354 0.0 2.0 0.00 0.00 0.00 29 979.9
20260510010922 65 341 0.0 3.0 0.00 0.00 0.00 30 979.8
20260510010918 64 328 0.0 3.0 0.00 0.00 0.00 30 979.8
20260510005917 65 345 0.0 2.0 0.00 0.00 0.00 29 979.6
20260510005417 65 334 0.0 4.0 0.00 0.00 0.00 28 979.5
20260510004922 66 0 1.0 4.0 0.00 0.00 0.00 26 979.3
20260510004918 65 359 1.0 4.0 0.00 0.00 0.00 27 979.4
20260510004523 66 357 1.0 4.0 0.00 0.00 0.00 26 979.3
20260510003417 66 11 1.0 3.0 0.00 0.00 0.00 27 979.3
20260510002918 66 359 1.0 4.0 0.00 0.00 0.00 25 979.2
20260510002417 66 356 2.0 4.0 0.00 0.00 0.00 25 979.2
20260510001921 66 341 1.0 5.0 0.00 0.00 0.00 24 979.1
20260510001917 66 357 2.0 5.0 0.00 0.00 0.00 24 979.1
20260510000418 67 4 2.0 5.0 0.00 0.00 0.00 24 978.9
20260509235922 67 345 2.0 6.0 0.00 0.00 0.00 24 979.1
20260509235918 67 18 2.0 6.0 0.00 0.00 0.00 23 978.9
20260509234917 67 1 1.0 5.0 0.00 0.00 0.00 23 979.1
20260509234417 67 15 0.0 4.0 0.00 0.00 0.00 23 979.1
20260509233917 67 203 0.0 1.0 0.00 0.00 0.00 22 978.9
20260509233418 67 207 0.0 2.0 0.00 0.00 0.00 22 978.9
20260509232918 68 304 1.0 4.0 0.00 0.00 0.00 23 978.9
20260509232418 68 338 2.0 5.0 0.00 0.00 0.00 22 978.8
20260509231917 68 359 2.0 7.0 0.00 0.00 0.00 22 978.9
20260509231419 69 347 3.0 11.0 0.00 0.00 0.00 24 979.1
20260509231415 69 337 2.0 7.0 0.00 0.00 0.00 23 978.9
20260509230415 69 32 4.0 11.0 0.00 0.00 0.00 25 979.1
20260509225916 69 326 3.0 10.0 0.00 0.00 0.00 24 979.1
20260509225415 69 309 2.0 7.0 0.00 0.00 0.00 24 979.1
20260509224913 69 342 2.0 7.0 0.00 0.00 0.00 23 978.9
20260509224414 69 345 2.0 7.0 0.00 0.00 0.00 24 978.9
20260509223913 70 319 2.0 9.0 0.00 0.00 0.00 23 978.9
20260509223417 70 337 3.0 12.0 0.00 0.00 0.00 23 978.6
20260509223413 70 356 3.0 9.0 0.00 0.00 0.00 23 978.8
20260509222413 71 304 3.0 12.0 0.00 0.00 0.00 24 978.6
20260509221914 71 200 2.0 11.0 0.00 0.00 0.00 23 978.7
20260509221414 71 6 1.0 5.0 0.00 0.00 0.00 23 978.7
20260509220913 70 7 0.0 2.0 0.00 0.00 0.00 23 978.5
20260509220413 69 82 1.0 6.0 0.00 0.00 0.00 22 978.3
20260509215913 68 20 3.0 7.0 0.00 0.00 0.00 22 978.7
20260509215413 68 335 4.0 9.0 0.00 0.00 0.00 23 978.9
20260509214914 69 15 2.0 9.0 0.00 0.00 0.00 21 978.7
20260509214417 68 260 2.0 7.0 0.00 0.00 0.00 23 978.6
20260509214413 69 26 1.0 7.0 0.00 0.00 0.00 23 978.6
20260509213413 68 307 2.0 7.0 0.00 0.00 0.00 21 978.8
20260509212913 67 339 3.0 11.0 0.00 0.00 0.00 22 978.9
20260509212413 67 301 3.0 11.0 0.00 0.00 0.00 23 979.2
20260509211913 67 323 4.0 12.0 0.00 0.00 0.00 25 979.1
20260509211413 68 16 5.0 13.0 0.00 0.00 0.00 25 979.2
20260509210912 68 310 3.0 13.0 0.00 0.00 0.00 23 978.9
20260509210411 68 293 3.0 8.0 0.00 0.00 0.00 23 979.1
20260509205911 68 350 3.0 8.0 0.00 0.00 0.00 20 979.2
20260509205415 69 323 4.0 9.0 0.00 0.00 0.00 20 978.9
20260509205411 69 6 3.0 7.0 0.00 0.00 0.00 20 979.2
20260509204910 69 313 4.0 7.0 0.00 0.00 0.00 20 979.1
20260509203911 70 6 2.0 9.0 0.00 0.00 0.00 20 979.1
20260509203411 71 341 3.0 10.0 0.00 0.00 0.00 19 979.1
20260509202910 71 336 4.0 10.0 0.00 0.00 0.00 22 978.9
20260509202409 71 317 4.0 11.0 0.00 0.00 0.00 20 978.9
20260509201909 72 22 5.0 14.0 0.00 0.00 0.00 21 979.1
20260509201413 72 347 5.0 18.0 0.00 0.00 0.00 20 979.2
20260509201409 73 343 6.0 18.0 0.00 0.00 0.00 20 979.1
20260509200413 73 24 2.0 7.0 0.00 0.00 0.00 19 979.2
20260509200409 73 350 3.0 7.0 0.00 0.00 0.00 19 979.1
20260509195409 72 328 3.0 9.0 0.00 0.00 0.00 17 979.2
20260509194908 72 324 5.0 11.0 0.00 0.00 0.00 17 979.2
20260509194409 72 36 6.0 13.0 0.00 0.00 0.00 20 979.2
20260509193910 71 102 5.0 13.0 0.00 0.00 0.00 19 979.3
20260509193407 72 20 5.0 12.0 0.00 0.00 0.00 18 979.3
20260509192906 72 327 6.0 12.0 0.00 0.00 0.00 17 979.2
20260509192407 71 1 5.0 13.0 0.00 0.00 0.00 17 979.2
20260509191909 71 356 5.0 13.0 0.00 0.00 0.00 18 979.2
20260509191407 71 333 6.0 13.0 0.00 0.00 0.00 20 979.2
20260509190907 71 27 7.0 18.0 0.00 0.00 0.00 19 979.3
20260509190408 71 320 6.0 29.0 0.00 0.00 0.00 17 979.3
20260509185907 70 8 5.0 29.0 0.00 0.00 0.00 19 979.1
20260509185407 70 14 6.0 12.0 0.00 0.00 0.00 18 979.3
20260509184907 71 2 6.0 13.0 0.00 0.00 0.00 19 979.4
20260509184409 71 56 5.0 15.0 0.00 0.00 0.00 19 979.6
20260509184405 71 11 6.0 15.0 0.00 0.00 0.00 19 979.4
20260509183409 69 8 4.0 12.0 0.00 0.00 0.00 21 979.6
20260509183405 70 30 5.0 14.0 0.00 0.00 0.00 19 979.6
20260509182410 69 0 4.0 10.0 0.00 0.00 0.00 21 979.8
20260509182405 70 309 4.0 11.0 0.00 0.00 0.00 20 979.6
20260509181905 69 30 4.0 11.0 0.00 0.00 0.00 20 979.6
20260509180903 69 300 5.0 10.0 0.00 0.00 0.00 22 979.8
20260509180403 69 256 5.0 13.0 0.00 0.00 0.00 21 979.8
20260509175903 69 345 5.0 13.0 0.00 0.00 0.00 21 979.8
20260509175403 69 322 5.0 13.0 0.00 0.00 0.00 21 979.6
20260509174907 69 31 5.0 12.0 0.00 0.00 0.00 20 979.9
20260509174903 69 335 6.0 13.0 0.00 0.00 0.00 22 979.8
20260509174508 69 353 5.0 16.0 0.00 0.00 0.00 21 979.9